User: anonymous   Login
Location: Newark
(37.9800°N, 91.3000°W)
Time: 06:10:43
(UTC+00:00)
Language:

NOAA 19 - Orbit

View from above orbital plane
View from above orbital plane
View from above satellite
View from above satellite

Ground track
Ground track

The orbit data is extracted from the following two-line orbital elements,

1 33591U 09005A   19340.55958991  .00000043  00000-0  48883-4 0  9995
2 33591  99.1910 335.9128 0013036 259.1851 100.7853 14.12386117558025
Epoch (UTC): 06 December 2019 13:25:48
Eccentricity: 0.0013036
inclination: 99.1910°
perigee height: 842 km
apogee height: 860 km
right ascension of ascending node: 335.9128°
argument of perigee: 259.1851°
revolutions per day: 14.12386117
mean anomaly at epoch: 100.7853°
orbit number at epoch: 55802

The dashed part of the orbit path shows where the satellite is in the earth's shadow,  

DLR